H1 CPF 2 NER 2021 10 12 9 285 01 glonass141 H2 1908801 9141 44850 2021 10 12 0 0 0 2021 10 15 23 45 0 900 1 1 0 0 0 1 H9 10 0 59499 0.00000 0 -10859434.139 22516180.614 5128564.377 10 0 59499 900.00000 0 -10452987.579 21786718.943 8209004.271 10 0 59499 1800.00000 0 -10009693.773 20671985.301 11130214.249 10 0 59499 2700.00000 0 -9585908.333 19187798.343 13835585.123 10 0 59499 3600.00000 0 -9234765.133 17362734.819 16272714.482 10 0 59499 4500.00000 0 -9003763.227 15237110.691 18394413.381 10 0 59499 5400.00000 0 -8932604.905 12861487.030 20159610.930 10 0 59499 6300.00000 0 -9051375.454 10294762.507 21534140.256 10 0 59499 7200.00000 0 -9379140.690 7601931.269 22491391.650 10 0 59499 8100.00000 0 -9923020.910 4851598.306 23012821.294 10 0 59499 9000.00000 0 -10677780.070 2113354.204 23088306.545 10 0 59499 9900.00000 0 -11625947.763 -544883.197 22716341.452 10 0 59499 10800.00000 0 -12738469.531 -3059451.557 21904068.909 10 0 59499 11700.00000 0 -13975859.332 -5373345.621 20667148.645 10 0 59499 12600.00000 0 -15289807.113 -7438339.276 19029463.000 10 0 59499 13500.00000 0 -16625175.597 -9216741.157 17022665.297 10 0 59499 14400.00000 0 -17922303.947 -10682711.685 14685578.392 10 0 59499 15300.00000 0 -19119522.881 -11823087.223 12063453.813 10 0 59499 16200.00000 0 -20155776.554 -12637677.362 9207104.650 10 0 59499 17100.00000 0 -20973241.494 -13139023.064 6171927.877 10 0 59499 18000.00000 0 -21519832.384 -13351625.836 3016834.380 10 0 59499 18900.00000 0 -21751488.698 -13310680.391 -196893.001 10 0 59499 19800.00000 0 -21634144.893 -13060364.269 -3406791.357 10 0 59499 20700.00000 0 -21145299.791 -12651756.790 -6550435.910 10 0 59499 21600.00000 0 -20275117.482 -12140475.709 -9566660.327 10 0 59499 22500.00000 0 -19027011.690 -11584132.105 -12396754.555 10 0 59499 23400.00000 0 -17417687.440 -11039711.992 -14985615.895 10 0 59499 24300.00000 0 -15476636.826 -10560996.430 -17282829.993 10 0 59499 25200.00000 0 -13245108.881 -10196130.250 -19243659.942 10 0 59499 26100.00000 0 -10774595.879 -9985443.265 -20829923.482 10 0 59499 27000.00000 0 -8124898.901 -9959616.952 -22010740.876 10 0 59499 27900.00000 0 -5361853.118 -10138274.851 -22763138.687 10 0 59499 28800.00000 0 -2554807.719 -10529056.758 -23072497.632 10 0 59499 29700.00000 0 226034.528 -11127216.190 -22932835.980 10 0 59499 30600.00000 0 2912307.354 -11915758.331 -22346923.194 10 0 59499 31500.00000 0 5440088.731 -12866112.682 -21326221.884 10 0 59499 32400.00000 0 7752318.120 -13939312.001 -19890659.503 10 0 59499 33300.00000 0 9800923.129 -15087627.677 -18068234.511 10 0 59499 34200.00000 0 11548567.750 -16256592.366 -15894465.000 10 0 59499 35100.00000 0 12969950.479 -17387324.325 -13411690.791 10 0 59499 36000.00000 0 14052599.517 -18419055.185 -10668242.926 10 0 59499 36900.00000 0 14797133.480 -19291754.248 -7717497.145 10 0 59499 37800.00000 0 15216978.573 -19948738.395 -4616830.182 10 0 59499 38700.00000 0 15337556.081 -20339157.385 -1426499.653 10 0 59499 39600.00000 0 15194976.210 -20420249.632 1791530.132 10 0 59499 40500.00000 0 14834295.060 -20159273.404 4974793.179 10 0 59499 41400.00000 0 14307409.691 -19535032.183 8061533.931 10 0 59499 42300.00000 0 13670681.161 -18538930.153 10991902.685 10 0 59499 43200.00000 0 12982386.579 -17175513.614 13709111.243 10 0 59499 44100.00000 0 12300107.941 -15462475.657 16160526.700 10 0 59499 45000.00000 0 11678167.758 -13430123.901 18298682.706 10 0 59499 45900.00000 0 11165219.108 -11120333.288 20082189.467 10 0 59499 46800.00000 0 10802090.936 -8585027.103 21476525.869 10 0 59499 47700.00000 0 10619978.497 -5884248.766 22454699.408 10 0 59499 48600.00000 0 10639054.280 -3083903.493 22997762.188 10 0 59499 49500.00000 0 10867557.256 -253262.238 23095173.865 10 0 59499 50400.00000 0 11301398.447 2537669.935 22745005.042 10 0 59499 51300.00000 0 11924299.474 5220813.571 21953977.442 10 0 59499 52200.00000 0 12708458.832 7732594.013 20737339.861 10 0 59499 53100.00000 0 13615718.775 10016334.416 19118581.786 10 0 59499 54000.00000 0 14599184.929 12024364.615 17128989.308 10 0 59499 54900.00000 0 15605231.892 13719759.149 14807050.760 10 0 59499 55800.00000 0 16575811.654 15077632.729 12197722.415 10 0 59499 56700.00000 0 17450968.758 16085939.524 9351567.200 10 0 59499 57600.00000 0 18171456.939 16745743.033 6323782.044 10 0 59499 58500.00000 0 18681347.153 17070945.165 3173131.984 10 0 59499 59400.00000 0 18930516.762 17087485.870 -39188.756 10 0 59499 60300.00000 0 18876914.045 16832046.933 -3250746.709 10 0 59499 61200.00000 0 18488501.280 16350314.584 -6399086.636 10 0 59499 62100.00000 0 17744792.870 15694874.488 -9422952.274 10 0 59499 63000.00000 0 16637921.914 14922828.450 -12263485.857 10 0 59499 63900.00000 0 15173188.509 14093234.167 -14865382.024 10 0 59499 64800.00000 0 13369065.007 13264477.040 -17177972.795 10 0 59499 65700.00000 0 11256656.476 12491685.981 -19156221.678 10 0 59499 66600.00000 0 8878637.807 11824303.271 -20761606.806 10 0 59499 67500.00000 0 6287711.051 11303911.892 -21962875.537 10 0 59499 68400.00000 0 3544646.821 10962412.667 -22736655.589 10 0 59499 69300.00000 0 715991.221 10820628.529 -23067910.749 10 0 59499 70200.00000 0 -2128466.309 10887395.007 -22950232.451 10 0 59499 71100.00000 0 -4918358.914 11159175.219 -22385961.771 10 0 59499 72000.00000 0 -7585431.054 11620215.416 -21386139.753 10 0 59499 72900.00000 0 -10066138.379 12243234.112 -19970287.342 10 0 59499 73800.00000 0 -12304050.978 12990615.309 -18166019.503 10 0 59499 74700.00000 0 -14251960.352 13816054.903 -16008501.338 10 0 59499 75600.00000 0 -15873603.281 14666590.277 -13539757.113 10 0 59499 76500.00000 0 -17144931.729 15484926.839 -10807845.905 10 0 59499 77400.00000 0 -18054877.086 16211962.783 -7865920.380 10 0 59499 78300.00000 0 -18605578.421 16789404.964 -4771187.392 10 0 59499 79200.00000 0 -18812066.949 17162365.073 -1583791.099 10 0 59499 80100.00000 0 -18701421.734 17281826.184 1634359.144 10 0 59499 81000.00000 0 -18311433.943 17106875.407 4820792.875 10 0 59499 81900.00000 0 -17688837.418 16606608.383 7913690.923 10 0 59499 82800.00000 0 -16887181.381 15761625.379 10853082.257 10 0 59499 83700.00000 0 -15964435.838 14565056.037 13582002.154 10 0 59499 84600.00000 0 -14980431.026 13023069.680 16047589.572 10 0 59499 85500.00000 0 -13994238.837 11154849.689 18202102.922 10 0 59500 0.00000 0 -13061606.147 8992032.898 20003835.296 10 0 59500 900.00000 0 -12232546.867 6577635.646 21417913.331 10 0 59500 1800.00000 0 -11549194.238 3964513.476 22416962.894 10 0 59500 2700.00000 0 -11044000.960 1213413.569 22981633.019 10 0 59500 3600.00000 0 -10738363.037 -1609297.675 23100966.291 10 0 59500 4500.00000 0 -10641723.855 -4434140.196 22772610.110 10 0 59500 5400.00000 0 -10751195.762 -7191156.556 22002864.850 10 0 59500 6300.00000 0 -11051714.959 -9812571.325 20806567.790 10 0 59500 7200.00000 0 -11516723.568 -12235364.738 19206814.556 10 0 59500 8100.00000 0 -12109350.847 -14403655.198 17234522.569 10 0 59500 9000.00000 0 -12784044.843 -16270792.719 14927843.819 10 0 59500 9900.00000 0 -13488586.801 -17801076.827 12331437.130 10 0 59500 10800.00000 0 -14166404.409 -18971027.786 9495612.772 10 0 59500 11700.00000 0 -14759087.101 -19770158.133 6475364.875 10 0 59500 12600.00000 0 -15208997.594 -20201212.104 3329309.670 10 0 59500 13500.00000 0 -15461869.333 -20279862.678 118549.665 10 0 59500 14400.00000 0 -15469279.509 -20033878.775 -3094514.333 10 0 59500 15300.00000 0 -15190892.153 -19501797.430 -6247399.888 10 0 59500 16200.00000 0 -14596375.091 -18731156.951 -9278764.105 10 0 59500 17100.00000 0 -13666908.141 -17776365.783 -12129604.749 10 0 59500 18000.00000 0 -12396217.072 -16696297.433 -14744416.945 10 0 59500 18900.00000 0 -10791087.906 -15551713.609 -17072282.019 10 0 59500 19800.00000 0 -8871338.182 -14402625.033 -19067866.513 10 0 59500 20700.00000 0 -6669244.894 -13305702.055 -20692311.142 10 0 59500 21600.00000 0 -4228451.828 -12311844.967 -21913992.021 10 0 59500 22500.00000 0 -1602401.063 -11464016.963 -22709139.089 10 0 59500 23400.00000 0 1147646.438 -10795431.378 -23062299.636 10 0 59500 24300.00000 0 3954918.985 -10328169.635 -22966638.075 10 0 59500 25200.00000 0 6749675.175 -10072287.867 -22424066.326 10 0 59500 26100.00000 0 9461872.014 -10025449.430 -21445202.581 10 0 59500 27000.00000 0 12023849.244 -10173098.109 -20049159.537 10 0 59500 27900.00000 0 14372918.404 -10489163.936 -18263166.514 10 0 59500 28800.00000 0 16453749.059 -10937270.988 -16122033.120 10 0 59500 29700.00000 0 18220453.370 -11472395.274 -13667465.211 10 0 59500 30600.00000 0 19638282.842 -12042901.867 -10947246.734 10 0 59500 31500.00000 0 20684867.389 -12592874.378 -8014303.844 10 0 59500 32400.00000 0 21350946.209 -13064637.611 -4925669.876 10 0 59500 33300.00000 0 21640561.368 -13401366.155 -1741371.784 10 0 59500 34200.00000 0 21570707.551 -13549668.158 1476739.764 10 0 59500 35100.00000 0 21170454.359 -13462034.762 4666193.442 10 0 59500 36000.00000 0 20479579.597 -13099051.515 7765109.790 10 0 59500 36900.00000 0 19546772.365 -12431278.348 10713399.383 10 0 59500 37800.00000 0 18427482.619 -11440718.815 13453923.450 10 0 59500 38700.00000 0 17181508.294 -10121816.666 15933594.765 10 0 59500 39600.00000 0 15870421.696 -8481937.788 18104397.921 10 0 59500 40500.00000 0 14554943.130 -6541316.955 19924310.100 10 0 59500 41400.00000 0 13292371.430 -4332471.059 21358105.467 10 0 59500 42300.00000 0 12134178.364 -1899102.579 22378028.610 10 0 59500 43200.00000 0 11123866.650 705462.156 22964325.089 10 0 59500 44100.00000 0 10295180.228 3420236.315 23105619.658 10 0 59500 45000.00000 0 9670740.686 6178857.432 22799135.452 10 0 59500 45900.00000 0 9261166.111 8912100.720 22050750.163 10 0 59500 46800.00000 0 9064708.713 11550518.253 20874887.991 10 0 59500 47700.00000 0 9067426.227 14027096.114 19294248.937 10 0 59500 48600.00000 0 9243880.031 16279820.617 17339379.835 10 0 59500 49500.00000 0 9558331.098 18254048.165 15048094.269 10 0 59500 50400.00000 0 9966384.132 19904580.802 12464751.428 10 0 59500 51300.00000 0 10417011.347 21197361.441 9639406.605 10 0 59500 52200.00000 0 10854871.149 22110718.043 6626848.692 10 0 59500 53100.00000 0 11222824.261 22636104.455 3485542.579 10 0 59500 54000.00000 0 11464540.969 22778306.495 276496.449 10 0 59500 54900.00000 0 11527088.889 22555104.190 -2937924.176 10 0 59500 55800.00000 0 11363390.974 21996403.923 -6095212.250 10 0 59500 56700.00000 0 10934448.555 21142876.799 -9133940.709 10 0 59500 57600.00000 0 10211233.877 20044160.479 -11994965.140 10 0 59500 58500.00000 0 9176170.386 18756700.485 -14622583.204 10 0 59500 59400.00000 0 7824136.443 17341322.331 -16965627.338 10 0 59500 60300.00000 0 6162948.272 15860637.349 -18978468.667 10 0 59500 61200.00000 0 4213300.185 14376392.153 -20621911.794 10 0 59500 62100.00000 0 2008163.072 12946873.936 -21863962.651 10 0 59500 63000.00000 0 -408334.869 11624481.285 -22680454.226 10 0 59500 63900.00000 0 -2982499.163 10453562.999 -23055517.877 10 0 59500 64800.00000 0 -5653066.092 9468615.768 -22981891.252 10 0 59500 65700.00000 0 -8353522.825 8692916.192 -22461057.019 10 0 59500 66600.00000 0 -11014654.091 8137644.111 -21503210.000 10 0 59500 67500.00000 0 -13567209.519 7801533.235 -20127053.689 10 0 59500 68400.00000 0 -15944580.649 7671062.736 -18359430.353 10 0 59500 69300.00000 0 -18085376.211 7721180.567 -16234792.297 10 0 59500 70200.00000 0 -19935788.666 7916526.755 -13794524.816 10 0 59500 71100.00000 0 -21451653.756 8213103.825 -11086134.330 10 0 59500 72000.00000 0 -22600117.696 8560322.641 -8162317.920 10 0 59500 72900.00000 0 -23360843.245 8903336.188 -5079932.756 10 0 59500 73800.00000 0 -23726705.313 9185561.649 -1898885.902 10 0 59500 74700.00000 0 -23703948.226 9351283.454 1319033.343 10 0 59500 75600.00000 0 -23311799.488 9348226.616 4511355.442 10 0 59500 76500.00000 0 -22581557.653 9129991.202 7616143.276 10 0 59500 77400.00000 0 -21555193.937 8658244.867 10573191.597 10 0 59500 78300.00000 0 -20283527.393 7904580.828 13325190.073 10 0 59500 79200.00000 0 -18824051.069 6851962.833 15818827.646 10 0 59500 80100.00000 0 -17238500.787 5495696.283 18005817.266 10 0 59500 81000.00000 0 -15590268.531 3843884.424 19843821.974 10 0 59500 81900.00000 0 -13941768.353 1917350.043 21297265.391 10 0 59500 82800.00000 0 -12351864.364 -250974.775 22338011.906 10 0 59500 83700.00000 0 -10873467.312 -2617166.331 22945904.484 10 0 59500 84600.00000 0 -9551399.010 -5127889.263 23109150.549 10 0 59500 85500.00000 0 -8420612.642 -7722374.438 22824549.081 10 0 59501 0.00000 0 -7504842.218 -10334714.126 22097554.926 10 0 59501 900.00000 0 -6815736.264 -12896382.297 20942178.469 10 0 59501 1800.00000 0 -6352512.500 -15338873.461 19380723.194 10 0 59501 2700.00000 0 -6102146.025 -17596356.696 17443364.078 10 0 59501 3600.00000 0 -6040084.350 -19608232.171 15167574.720 10 0 59501 4500.00000 0 -6131458.989 -21321486.011 12597412.805 10 0 59501 5400.00000 0 -6332743.100 -22692745.543 9782676.535 10 0 59501 6300.00000 0 -6593785.746 -23689949.195 6777947.235 10 0 59501 7200.00000 0 -6860137.260 -24293560.865 3641535.939 10 0 59501 8100.00000 0 -7075567.532 -24497277.380 434353.842 10 0 59501 9000.00000 0 -7184670.425 -24308198.671 -2781271.607 10 0 59501 9900.00000 0 -7135443.505 -23746452.835 -5942811.641 10 0 59501 10800.00000 0 -6881732.823 -22844291.281 -8988758.003 10 0 59501 11700.00000 0 -6385437.921 -21644691.654 -11859827.123 10 0 59501 12600.00000 0 -5618382.171 -20199527.216 -14500122.203 10 0 59501 13500.00000 0 -4563767.619 -18567379.885 -16858229.699 10 0 59501 14400.00000 0 -3217151.090 -16811089.284 -18888228.022 10 0 59501 15300.00000 0 -1586898.703 -14995141.373 -20550588.050 10 0 59501 16200.00000 0 305901.951 -13183006.980 -21812947.528 10 0 59501 17100.00000 0 2428069.673 -11434542.434 -22650743.989 10 0 59501 18000.00000 0 4735472.304 -9803561.748 -23047693.838 10 0 59501 18900.00000 0 7174637.199 -8335682.254 -22996108.406 10 0 59501 19800.00000 0 9684762.841 -7066533.762 -22497041.037 10 0 59501 20700.00000 0 12200047.882 -6020405.826 -21560262.644 10 0 59501 21600.00000 0 14652240.701 -5209388.951 -20204066.520 10 0 59501 22500.00000 0 16973303.254 -4633044.608 -18454906.475 10 0 59501 23400.00000 0 19098078.099 -4278616.590 -16346875.676 10 0 59501 24300.00000 0 20966847.472 -4121773.263 -13921036.608 10 0 59501 25200.00000 0 22527677.797 -4127847.896 -11224615.495 10 0 59501 26100.00000 0 23738451.978 -4253523.260 -8310077.286 10 0 59501 27000.00000 0 24568505.066 -4448887.942 -5234099.578 10 0 59501 27900.00000 0 24999795.632 -4659776.244 -2056465.901 10 0 59501 28800.00000 0 25027564.658 -4830291.696 1161099.592 10 0 59501 29700.00000 0 24660455.482 -4905406.634 4356132.912 10 0 59501 30600.00000 0 23920090.911 -4833527.355 7466642.884 10 0 59501 31500.00000 0 22840126.402 -4568916.009 10432311.755 10 0 59501 32400.00000 0 21464820.071 -4073866.798 13195660.563 10 0 59501 33300.00000 0 19847180.262 -3320544.512 15703156.900 10 0 59501 34200.00000 0 18046768.820 -2292407.954 17906244.074 10 0 59501 35100.00000 0 16127252.152 -985158.201 19762272.512 10 0 59501 36000.00000 0 14153802.185 592828.404 21235316.359 10 0 59501 36900.00000 0 12190455.225 2420601.192 22296860.435 10 0 59501 37800.00000 0 10297537.957 4465266.669 22926345.325 10 0 59501 38700.00000 0 8529266.739 6683125.400 23111560.946 10 0 59501 39600.00000 0 6931619.015 9021268.257 22848881.577 10 0 59501 40500.00000 0 5540564.255 11419567.218 22143338.136 10 0 59501 41400.00000 0 4380726.971 13812979.707 21008526.202 10 0 59501 42300.00000 0 3464536.699 16134072.263 19466351.083 10 0 59501 43200.00000 0 2791899.721 18315660.205 17546614.054 10 0 59501 44100.00000 0 2350405.861 20293454.760 15286446.646 10 0 59501 45000.00000 0 2116061.574 22008608.251 12729602.751 10 0 59501 45900.00000 0 2054518.628 23410051.741 9925620.999 10 0 59501 46800.00000 0 2122746.814 24456527.574 6928872.522 10 0 59501 47700.00000 0 2271080.412 25118231.414 3797511.739 10 0 59501 48600.00000 0 2445552.000 25377994.363 592350.021 10 0 59501 49500.00000 0 2590414.752 25231954.714 -2624326.129 10 0 59501 50400.00000 0 2650746.005 24689690.165 -5789969.067 10 0 59501 51300.00000 0 2575021.003 23773804.071 -8842992.064 10 0 59501 52200.00000 0 2317546.661 22518982.394 -11723974.937 10 0 59501 53100.00000 0 1840650.910 20970560.550 -14376828.737 10 0 59501 54000.00000 0 1116533.379 19182660.184 -16749895.980 10 0 59501 54900.00000 0 128697.472 17215974.240 -18796964.123 10 0 59501 55800.00000 0 -1127098.262 15135293.642 -20478171.817 10 0 59501 56700.00000 0 -2642411.163 13006879.742 -21760789.838 10 0 59501 57600.00000 0 -4396227.382 10895793.113 -22619861.230 10 0 59501 58500.00000 0 -6355613.108 8863290.919 -23038688.114 10 0 59501 59400.00000 0 -8476877.738 6964401.959 -23009155.853 10 0 59501 60300.00000 0 -10707201.004 5245780.647 -22531888.443 10 0 59501 61200.00000 0 -12986656.377 3743929.323 -21616232.448 10 0 59501 62100.00000 0 -15250546.458 2483862.422 -20280070.070 10 0 59501 63000.00000 0 -17431952.915 1478267.284 -18549465.327 10 0 59501 63900.00000 0 -19464394.379 727195.384 -16458150.494 10 0 59501 64800.00000 0 -21284481.274 218295.273 -14046863.145 10 0 59501 65700.00000 0 -22834456.634 -72424.331 -11362546.929 10 0 59501 66600.00000 0 -24064516.667 -179335.198 -8457432.086 10 0 59501 67500.00000 0 -24934814.244 -145488.778 -5388013.949 10 0 59501 68400.00000 0 -25417061.796 -20547.330 -2213949.733 10 0 59501 69300.00000 0 -25495667.005 141564.309 1003104.366 10 0 59501 70200.00000 0 -25168354.479 285185.922 4200692.748 10 0 59501 71100.00000 0 -24446248.158 355520.380 7316773.004 10 0 59501 72000.00000 0 -23353411.940 301193.032 10290917.678 10 0 59501 72900.00000 0 -21925868.644 76663.523 13065481.886 10 0 59501 73800.00000 0 -20210139.106 -355611.882 15586714.439 10 0 59501 74700.00000 0 -18261363.068 -1023358.617 17805791.341 10 0 59501 75600.00000 0 -16141080.572 -1943079.534 19679752.443 10 0 59501 76500.00000 0 -13914766.306 -3119127.107 21172324.089 10 0 59501 77400.00000 0 -11649219.232 -4543291.377 22254612.787 10 0 59501 78300.00000 0 -9409915.359 -6194921.450 22905657.569 10 0 59501 79200.00000 0 -7258432.668 -8041576.406 23112831.237 10 0 59501 80100.00000 0 -5250054.085 -10040179.575 22872083.353 10 0 59501 81000.00000 0 -3431646.769 -12138629.547 22188020.603 10 0 59501 81900.00000 0 -1839904.623 -14277802.430 21073822.905 10 0 59501 82800.00000 0 -500026.076 -16393863.581 19550996.412 10 0 59501 83700.00000 0 575118.735 -18420794.154 17648967.386 10 0 59501 84600.00000 0 1385297.295 -20293028.560 15404523.702 10 0 59501 85500.00000 0 1942687.990 -21948093.816 12861113.619 10 0 59502 0.00000 0 2271127.037 -23329141.148 10068014.393 10 0 59502 900.00000 0 2404860.856 -24387264.833 7079384.172 10 0 59502 1800.00000 0 2386855.952 -25083509.118 3953218.563 10 0 59502 2700.00000 0 2266738.206 -25390480.879 750226.527 10 0 59502 3600.00000 0 2098448.301 -25293497.450 -2467349.057 10 0 59502 4500.00000 0 1937713.036 -24791221.025 -5636944.407 10 0 59502 5400.00000 0 1839440.242 -23895751.684 -8696897.122 10 0 59502 6300.00000 0 1855148.575 -22632174.040 -11587653.209 10 0 59502 7200.00000 0 2030542.265 -21037575.705 -14252934.354 10 0 59502 8100.00000 0 2403334.869 -19159578.261 -16640841.812 10 0 59502 9000.00000 0 3001415.675 -17054442.092 -18704874.609 10 0 59502 9900.00000 0 3841437.697 -14784824.617 -20404841.420 10 0 59502 10800.00000 0 4927888.380 -12417286.041 -21707647.962 10 0 59502 11700.00000 0 6252683.514 -10019647.309 -22587944.291 10 0 59502 12600.00000 0 7795302.576 -7658311.101 -23028619.311 10 0 59502 13500.00000 0 9523460.752 -5395657.952 -23021133.018 10 0 59502 14400.00000 0 11394290.173 -3287626.179 -22565680.239 10 0 59502 15300.00000 0 13355981.281 -1381576.378 -21671182.942 10 0 59502 16200.00000 0 15349815.832 285471.006 -20355111.620 10 0 59502 17100.00000 0 17312506.588 1688152.480 -18643139.493 10 0 59502 18000.00000 0 19178745.641 2813578.850 -16568636.572 10 0 59502 18900.00000 0 20883854.611 3661620.557 -14172013.750 10 0 59502 19800.00000 0 22366425.673 4244650.880 -11499929.938 10 0 59502 20700.00000 0 23570842.585 4586759.648 -8604378.108 10 0 59502 21600.00000 0 24449576.133 4722472.527 -5541668.401 10 0 59502 22500.00000 0 24965157.854 4695031.672 -2371328.509 10 0 59502 23400.00000 0 25091749.499 4554311.890 845056.741 10 0 59502 24300.00000 0 24816242.859 4354461.740 4045043.621 10 0 59502 25200.00000 0 24138844.345 4151370.319 7166541.934 10 0 59502 26100.00000 0 23073120.436 4000067.522 10149017.789 10 0 59502 27000.00000 0 21645502.752 3952168.085 12934663.411 10 0 59502 27900.00000 0 19894273.965 4053467.529 15469511.538 10 0 59502 28800.00000 0 17868077.401 4341791.358 17704473.226 10 0 59502 29700.00000 0 15624012.704 4845188.036 19596279.744 10 0 59502 30600.00000 0 13225396.799 5580541.683 21108311.249 10 0 59502 31500.00000 0 10739282.987 6552662.734 22211297.178 10 0 59502 32400.00000 0 8233840.538 7753894.990 22883875.867 10 0 59502 33300.00000 0 5775702.569 9164256.038 23113003.469 10 0 59502 34200.00000 0 3427391.144 10752106.028 22894204.877 10 0 59502 35100.00000 0 1244925.042 12475318.041 22231662.175 10 0 59502 36000.00000 0 -724291.856 14282902.618 21138138.810 10 0 59502 36900.00000 0 -2443215.066 16117020.194 19634740.548 10 0 59502 37800.00000 0 -3886465.440 17915299.008 17750517.020 10 0 59502 38700.00000 0 -5041143.049 19613363.188 15521910.492 10 0 59502 39600.00000 0 -5907115.541 21147466.495 12992061.342 10 0 59502 40500.00000 0 -6496769.343 22457122.355 10209982.458 10 0 59502 41400.00000 0 -6834234.317 23487620.408 7229617.369 10 0 59502 42300.00000 0 -6954114.448 24192323.866 4108799.601 10 0 59502 43200.00000 0 -6899778.157 24534650.654 908132.837 10 0 59502 44100.00000 0 -6721280.461 24489654.134 -2310186.584 10 0 59502 45000.00000 0 -6473005.120 24045135.648 -5483581.652 10 0 59502 45900.00000 0 -6211127.045 23202240.741 -8550317.128 10 0 59502 46800.00000 0 -5991003.198 21975512.614 -11450707.913 10 0 59502 47700.00000 0 -5864603.469 20392399.322 -14128288.819 10 0 59502 48600.00000 0 -5878091.513 18492234.479 -16530922.105 10 0 59502 49500.00000 0 -6069659.254 16324733.524 -18611820.353 10 0 59502 50400.00000 0 -6467707.944 13948068.279 -20330463.988 10 0 59502 51300.00000 0 -7089453.924 11426600.294 -21653395.123 10 0 59502 52200.00000 0 -7940019.109 8828367.839 -22554872.011 10 0 59502 53100.00000 0 -9012045.517 6222431.765 -23017371.231 10 0 59502 54000.00000 0 -10285850.890 3676191.108 -23031928.003 10 0 59502 54900.00000 0 -11730119.491 1252780.404 -22598308.208 10 0 59502 55800.00000 0 -13303099.413 -991342.932 -21725009.062 10 0 59502 56700.00000 0 -14954256.378 -3008521.094 -20429088.759 10 0 59502 57600.00000 0 -16626314.665 -4761640.567 -18735828.701 10 0 59502 58500.00000 0 -18257599.448 -6225427.272 -16678235.201 10 0 59502 59400.00000 0 -19784582.092 -7387239.546 -14296390.663 10 0 59502 60300.00000 0 -21144521.426 -8247327.530 -11636667.135 10 0 59502 61200.00000 0 -22278089.834 -8818549.928 -8750817.946 10 0 59502 62100.00000 0 -23131873.777 -9125562.068 -5694965.479 10 0 59502 63000.00000 0 -23660643.622 -9203511.397 -2528505.175 10 0 59502 63900.00000 0 -23829297.452 -9096297.154 687052.348 10 0 59502 64800.00000 0 -23614397.361 -8854469.284 3889278.173 10 0 59502 65700.00000 0 -23005234.003 -8532856.600 7016037.315 10 0 59502 66600.00000 0 -22004375.049 -8188025.325 10006692.483 10 0 59502 67500.00000 0 -20627674.984 -7875675.972 12803276.001 10 0 59502 68400.00000 0 -18903746.116 -7648088.752 15351607.413 10 0 59502 69300.00000 0 -16872913.202 -7551725.244 17602335.503 10 0 59502 70200.00000 0 -14585695.375 -7625087.225 19511885.329 10 0 59502 71100.00000 0 -12100878.385 -7896922.475 21043292.861 10 0 59502 72000.00000 0 -9483256.989 -8384852.715 22166912.027 10 0 59502 72900.00000 0 -6801140.458 -9094481.156 22860981.566 10 0 59502 73800.00000 0 -4123723.686 -10019017.229 23112041.609 10 0 59502 74700.00000 0 -1518431.748 -11139434.605 22915192.569 10 0 59502 75600.00000 0 951653.452 -12425156.720 22274191.697 10 0 59502 76500.00000 0 3230179.178 -13835242.196 21201385.377 10 0 59502 77400.00000 0 5269622.790 -15320021.896 19717478.063 10 0 59502 78300.00000 0 7033021.590 -16823120.598 17851141.511 10 0 59502 79200.00000 0 8495260.608 -18283780.122 15638470.833 10 0 59502 80100.00000 0 9643865.334 -19639387.842 13122296.684 10 0 59502 81000.00000 0 10479266.754 -20828105.580 10351365.698 10 0 59502 81900.00000 0 11014527.899 -21791489.094 7379403.870 10 0 59502 82800.00000 0 11274543.409 -22476988.173 4264080.234 10 0 59502 83700.00000 0 11294745.886 -22840221.805 1065890.364 10 0 59502 84600.00000 0 11119373.618 -22846931.778 -2153018.889 10 0 59502 85500.00000 0 10799372.994 -22474531.230 -5330060.276 99